Regional Weather Roundup
Issued by NWS State College, PA

Current Version | Previous Version | Text Only | Print | Product List | Glossary On
Versions: 1 2 3 4 5 6 7 8 9 10 11 12 13 14 15 16 17 18 19 20 21 22 23 24 25 26 27 28 29 30 31 32 33 34 35 36 37 38 39 40 41 42 43 44 45 46 47 48 49 50
000
ASUS41 KCTP 290410
RWRCTP

REGIONAL WEATHER ROUNDUP
NATIONAL WEATHER SERVICE STATE COLLEGE PA
1200 AM EDT SUN MAR 29 2020

Note: "fair" indicates few or no clouds below 12,000 feet with no
significant weather and/or obstructions to visibility.

* = STATION THAT DOES NOT REPORT PRECIPITATION /E.G. RAIN...SNOW...ETC/
    THUNDER OR FOG.

PAZ002>004-007>009-013>016-020>023-029>032-290500-
WESTERN PENNSYLVANIA

CITY           SKY/WX    TMP DP  RH WIND       PRES   REMARKS
ERIE           CLOUDY    46  43  89 NE6       29.78S
MEADVILLE      CLOUDY    59  58  96 VRB5      29.77R
FRANKLIN       FOG       59  59 100 S12       29.82R VSB 3/4
NEW CASTLE     LGT RAIN  63  62  97 S9G16     29.77F
BEAVER COUNTY  TSTM      64  63  96 SE8       29.84F
BUTLER         RAIN      61  61 100 SE8       29.86S FOG
PITTSBURGH INT TSTM      63  62  97 SW10      29.90R FOG
PITTSBURGH     TSTM      62  62 100 W8        29.89R
INDIANA*       CLOUDY    57  57 100 S3        29.93F FOG
LATROBE        CLOUDY    61  61 100 N7        29.88S
WASHINGTON CO* MOCLDY    61  61 100 SE3       29.89R THUNDER FOG
$$

PAZ004>006-010>012-017>019-024>028-033>037-041-042-045-046-049>053-290500-
CENTRAL PENNSYLVANIA

CITY           SKY/WX    TMP DP  RH WIND       PRES   REMARKS
BRADFORD       LGT RAIN  48  47  96 SE9       29.86F FOG
ST MARYS       CLOUDY    46  46 100 SE3       29.91
DUBOIS         CLOUDY    51  50  96 VRB5      29.86F
CLEARFIELD     LGT RAIN  49  47  93 NE6       29.93R
JOHNSTOWN      LGT RAIN  54  52  93 S8        29.92R
SOMERSET       CLOUDY    54  52  94 CALM      29.94F
ALTOONA        LGT RAIN  52  51  97 S6        29.93F FOG
STATE COLLEGE  LGT RAIN  47  47 100 CALM      29.97R
REEDSVILLE     CLOUDY    48  48 100 CALM      29.98
WELLSBORO      FOG       43  43 100 S9        29.92S VSB<1/4
WILLIAMSPORT   LGT RAIN  47  43  86 E8        29.98R
SELINSGROVE    LGT RAIN  47  46  97 N5        30.00R
FT INDIANTOWN  CLOUDY    46  46  99 NE3       29.99S
CAPITAL CITY   CLOUDY    49  45  86 E3        29.98S
HARRISBURG     CLOUDY    48  46  93 CALM      29.97S
YORK           CLOUDY    48  45  89 NE5       29.96S
$$

PAZ038>040-043-044-047-048-054-055-060>062-067>071-290500-
EASTERN PENNSYLVANIA

CITY           SKY/WX    TMP DP  RH WIND       PRES   REMARKS
TOWANDA        CLOUDY    45  45 100 CALM      29.99S
SCRANTON       CLOUDY    45  40  82 NE5       29.99R
MOUNT POCONO   FOG       38  37  97 E6        29.99R VSB 1/4
HAZLETON       DRZL/FOG  43  41  93 SE5       30.01R VSB 1/2
LEHIGHTON      CLOUDY    43  43 100 CALM      30.02S FOG
ALLENTOWN      CLOUDY    46  41  82 NE12      30.01R
QN CITY/ALNTWN CLOUDY    45  45 100 NE8       30.02R
QUAKERTOWN*    CLOUDY    45  45 100 NE6       30.00R FOG
PERKASIE*      MIX PCPN  45  45 100 NE9       30.00R VSB 1
DOYLESTOWN     CLOUDY    45  43  93 NE9       29.99R FOG
READING        CLOUDY    46  45  96 NE8       29.98S FOG
LANCASTER      CLOUDY    48  45  89 NE9       29.98S
COATESVILLE    FOG       46  46 100 NE3       29.97F VSB 1/4
WEST CHESTER   CLOUDY    46  45  93 N5        29.98S FOG
POTTSTOWN      CLOUDY    44  44 100 N7        30.01R
BLUE BELL      CLOUDY    46  45  99 NE6       29.99R FOG
NORTH PHILA    CLOUDY    49  47  93 N8        29.99R FOG
PHILADELPHIA   CLOUDY    49  46  90 NE10      29.97R
$$



USA.gov is the U.S. government's official web portal to all federal, state and local government web resources and services.